sat.trackr.live / text

‹ back to catalog

STARLINK-35065

NORAD 65441 · 2025-194H

PAYLOAD ACTIVE UNKNOWN

§ Identity

Operator
Country
US
Launch date
2025-09-03
Launch site
AFWTR
Launch vehicle
Mass (kg)
RCS (m²)

Purposes: comms

External: N2YO · Heavens-Above · Gunter

§ Orbital elements

Epoch: 2026-05-25T02:38:27.157056Z

Period
95.64 min
Inclination
97.4536°
Eccentricity
0.0002920
Mean motion
15.05654255 rev/d
Perigee alt
547.5 km
Apogee alt
551.5 km
Semi-major
6,927.6 km
B*
1.1164e-4
RAAN
359.2920°
Arg perigee
83.1728°
Mean anomaly
276.9832°
Rev number
4,114

§ Raw data

STARLINK-350651 65441U 25194H   26145.11003654  .00001553  00000+0  11164-3 0  99982 65441  97.4536 359.2920 0002920  83.1728 276.9832 15.05654255 41143

JSON: /api/v1/satellites/65441 · /tle

For live sub-satellite position, see the globe view (requires WebGL).

§ Visibility from observer

Set your observer location to see the next 7 days of passes ≥ 10°. The values pass through the URL so the page stays shareable.

No JS? Fill the form by hand. The geolocation button needs JavaScript.